Meteo pe oră la Abishevo

Astăzi, 26 Iulie, Luni

Timp Temperatura Precipitaţii Vânt Presiune Umiditate
00:00 +13°C° 0 mm 2 m/s 754 mmHg 56%
01:00 +12°C° 0 mm 2 m/s 755 mmHg 58%
02:00 +12°C° 0 mm 2 m/s 755 mmHg 60%
03:00 +11°C° 0 mm 1 m/s 755 mmHg 62%
04:00 +11°C° 0 mm 1 m/s 755 mmHg 64%
05:00 +12°C° 0 mm 1 m/s 755 mmHg 59%
06:00 +14°C° 0 mm 1 m/s 755 mmHg 55%
07:00 +16°C° 0 mm 1 m/s 756 mmHg 50%
08:00 +18°C° 0 mm 2 m/s 756 mmHg 46%
09:00 +19°C° 0 mm 2 m/s 756 mmHg 41%
10:00 +21°C° 0 mm 2 m/s 756 mmHg 36%
11:00 +23°C° 0 mm 2 m/s 755 mmHg 34%
12:00 +24°C° 0 mm 2 m/s 755 mmHg 32%
13:00 +25°C° 0 mm 2 m/s 755 mmHg 30%
14:00 +25°C° 0 mm 2 m/s 754 mmHg 29%
15:00 +25°C° 0 mm 2 m/s 754 mmHg 28%
16:00 +25°C° 0 mm 3 m/s 754 mmHg 27%
17:00 +25°C° 0 mm 3 m/s 754 mmHg 31%
18:00 +24°C° 0 mm 2 m/s 754 mmHg 35%
19:00 +23°C° 0 mm 2 m/s 754 mmHg 38%
20:00 +20°C° 0 mm 2 m/s 754 mmHg 42%
21:00 +18°C° 0 mm 2 m/s 754 mmHg 45%
22:00 +17°C° 0 mm 2 m/s 754 mmHg 49%
23:00 +16°C° 0 mm 2 m/s 754 mmHg 53%

Mâine, 27 Iulie, Marţi

Timp Temperatura Precipitaţii Vânt Presiune Umiditate
00:00 +15°C° 0 mm 1 m/s 754 mmHg 56%
01:00 +14°C° 0 mm 1 m/s 754 mmHg 60%
02:00 +14°C° 0 mm 1 m/s 754 mmHg 60%
03:00 +14°C° 0 mm 1 m/s 754 mmHg 59%
04:00 +14°C° 0 mm 1 m/s 754 mmHg 59%
05:00 +16°C° 0 mm 1 m/s 754 mmHg 57%
06:00 +17°C° 0 mm 2 m/s 754 mmHg 54%
07:00 +18°C° 0 mm 2 m/s 754 mmHg 51%
08:00 +20°C° 0 mm 3 m/s 753 mmHg 46%
09:00 +22°C° 0 mm 3 m/s 753 mmHg 40%
10:00 +25°C° 0 mm 4 m/s 753 mmHg 35%
11:00 +25°C° 0 mm 4 m/s 752 mmHg 34%
12:00 +25°C° 0 mm 4 m/s 752 mmHg 34%
13:00 +25°C° 0 mm 4 m/s 752 mmHg 33%
14:00 +25°C° 0 mm 4 m/s 751 mmHg 34%
15:00 +26°C° 0 mm 5 m/s 751 mmHg 35%
16:00 +26°C° 0 mm 5 m/s 751 mmHg 37%
17:00 +23°C° 0.1 mm 5 m/s 751 mmHg 47%
18:00 +21°C° 0.1 mm 4 m/s 750 mmHg 58%
19:00 +19°C° 0.1 mm 3 m/s 750 mmHg 69%
20:00 +18°C° 0.1 mm 3 m/s 750 mmHg 74%
21:00 +17°C° 0.1 mm 2 m/s 750 mmHg 79%
22:00 +15°C° 0.1 mm 1 m/s 750 mmHg 85%
23:00 +15°C° 0.1 mm 1 m/s 750 mmHg 86%

Poimâine, 28 Iulie, Miercuri

Timp Temperatura Precipitaţii Vânt Presiune Umiditate
00:00 +15°C° 0.1 mm 1 m/s 750 mmHg 88%
01:00 +15°C° 0.1 mm 2 m/s 750 mmHg 90%
02:00 +14°C° 0 mm 2 m/s 750 mmHg 91%
03:00 +13°C° 0 mm 1 m/s 751 mmHg 92%
04:00 +12°C° 0 mm 1 m/s 751 mmHg 93%
05:00 +13°C° 0 mm 2 m/s 751 mmHg 89%
06:00 +14°C° 0 mm 2 m/s 751 mmHg 84%
07:00 +14°C° 0 mm 3 m/s 751 mmHg 80%
08:00 +17°C° 0 mm 3 m/s 751 mmHg 68%
09:00 +18°C° 0 mm 4 m/s 752 mmHg 56%
10:00 +20°C° 0 mm 4 m/s 752 mmHg 44%
11:00 +21°C° 0 mm 4 m/s 751 mmHg 39%
12:00 +22°C° 0 mm 4 m/s 751 mmHg 34%
13:00 +23°C° 0 mm 4 m/s 751 mmHg 29%
14:00 +24°C° 0 mm 3 m/s 751 mmHg 28%
15:00 +25°C° 0 mm 3 m/s 751 mmHg 27%
16:00 +25°C° 0 mm 3 m/s 750 mmHg 26%
17:00 +24°C° 0 mm 2 m/s 750 mmHg 30%
18:00 +24°C° 0 mm 2 m/s 750 mmHg 34%
19:00 +23°C° 0 mm 1 m/s 750 mmHg 38%
20:00 +21°C° 0 mm 1 m/s 750 mmHg 41%
21:00 +19°C° 0 mm 1 m/s 750 mmHg 44%
22:00 +16°C° 0 mm 1 m/s 750 mmHg 47%
23:00 +15°C° 0 mm 1 m/s 750 mmHg 48%

29 Iulie, Joi

Timp Temperatura Precipitaţii Vânt Presiune Umiditate
00:00 +14°C° 0 mm 1 m/s 750 mmHg 49%
01:00 +14°C° 0 mm 2 m/s 750 mmHg 50%
02:00 +14°C° 0 mm 2 m/s 750 mmHg 51%
03:00 +13°C° 0 mm 2 m/s 750 mmHg 52%
04:00 +13°C° 0 mm 2 m/s 750 mmHg 52%
05:00 +15°C° 0 mm 2 m/s 750 mmHg 49%
06:00 +16°C° 0 mm 3 m/s 750 mmHg 47%
07:00 +18°C° 0 mm 3 m/s 750 mmHg 44%
08:00 +20°C° 0 mm 4 m/s 750 mmHg 41%
09:00 +22°C° 0 mm 4 m/s 749 mmHg 38%
10:00 +25°C° 0 mm 5 m/s 749 mmHg 35%
11:00 +26°C° 0 mm 6 m/s 749 mmHg 35%
12:00 +27°C° 0 mm 6 m/s 748 mmHg 35%
13:00 +28°C° 0 mm 7 m/s 748 mmHg 34%
14:00 +28°C° 0.1 mm 6 m/s 747 mmHg 37%
15:00 +27°C° 0.1 mm 6 m/s 747 mmHg 40%
16:00 +27°C° 0.1 mm 6 m/s 747 mmHg 43%
17:00 +25°C° 0.1 mm 5 m/s 747 mmHg 55%
18:00 +22°C° 0.1 mm 4 m/s 747 mmHg 67%
19:00 +20°C° 0.1 mm 3 m/s 747 mmHg 79%
20:00 +20°C° 0.1 mm 4 m/s 746 mmHg 78%
21:00 +19°C° 0.1 mm 4 m/s 745 mmHg 77%
22:00 +19°C° 0.1 mm 5 m/s 744 mmHg 77%
23:00 +19°C° 0.4 mm 5 m/s 744 mmHg 80%

30 Iulie, Vineri

Timp Temperatura Precipitaţii Vânt Presiune Umiditate
00:00 +19°C° 0.4 mm 6 m/s 744 mmHg 83%
01:00 +19°C° 0.4 mm 6 m/s 744 mmHg 86%
02:00 +17°C° 0.1 mm 6 m/s 744 mmHg 89%
03:00 +17°C° 0.1 mm 5 m/s 744 mmHg 91%
04:00 +18°C° 0.1 mm 4 m/s 744 mmHg 93%
05:00 +17°C° 0.1 mm 5 m/s 744 mmHg 91%
06:00 +19°C° 0.1 mm 5 m/s 744 mmHg 89%
07:00 +20°C° 0.1 mm 5 m/s 744 mmHg 87%
08:00 +22°C° 0.2 mm 5 m/s 744 mmHg 77%
09:00 +24°C° 0.2 mm 6 m/s 744 mmHg 67%
10:00 +27°C° 0.2 mm 6 m/s 744 mmHg 57%
11:00 +28°C° 0.1 mm 7 m/s 744 mmHg 52%
12:00 +29°C° 0.1 mm 7 m/s 743 mmHg 46%
13:00 +31°C° 0.1 mm 8 m/s 743 mmHg 41%
14:00 +30°C° 0 mm 7 m/s 743 mmHg 42%
15:00 +30°C° 0 mm 7 m/s 744 mmHg 42%
16:00 +30°C° 0 mm 7 m/s 744 mmHg 43%
17:00 +29°C° 0 mm 6 m/s 744 mmHg 47%
18:00 +28°C° 0 mm 5 m/s 744 mmHg 50%
19:00 +27°C° 0 mm 4 m/s 745 mmHg 54%
20:00 +25°C° 0 mm 3 m/s 745 mmHg 60%
21:00 +24°C° 0 mm 2 m/s 745 mmHg 65%
22:00 +22°C° 0 mm 1 m/s 746 mmHg 71%
23:00 +21°C° 0 mm 1 m/s 746 mmHg 74%

31 Iulie, Sâmbătă

Timp Temperatura Precipitaţii Vânt Presiune Umiditate
00:00 +21°C° 0 mm 1 m/s 746 mmHg 76%
01:00 +20°C° 0 mm 1 m/s 746 mmHg 78%
02:00 +20°C° 0 mm 1 m/s 746 mmHg 78%
03:00 +19°C° 0 mm 2 m/s 746 mmHg 79%
04:00 +19°C° 0 mm 2 m/s 746 mmHg 79%
05:00 +20°C° 0.1 mm 2 m/s 746 mmHg 76%
06:00 +21°C° 0.1 mm 2 m/s 747 mmHg 73%
07:00 +23°C° 0.1 mm 2 m/s 747 mmHg 70%
08:00 +25°C° 0 mm 2 m/s 747 mmHg 61%
09:00 +27°C° 0 mm 3 m/s 747 mmHg 52%
10:00 +30°C° 0 mm 4 m/s 747 mmHg 44%
11:00 +32°C° 0 mm 4 m/s 746 mmHg 42%
12:00 +33°C° 0 mm 4 m/s 746 mmHg 40%
13:00 +34°C° 0 mm 4 m/s 746 mmHg 37%
14:00 +34°C° 0 mm 4 m/s 746 mmHg 37%
15:00 +34°C° 0 mm 3 m/s 746 mmHg 37%
16:00 +34°C° 0 mm 3 m/s 746 mmHg 37%
17:00 +33°C° 0 mm 3 m/s 746 mmHg 39%
18:00 +31°C° 0 mm 2 m/s 746 mmHg 41%
19:00 +30°C° 0 mm 2 m/s 747 mmHg 43%
20:00 +28°C° 0 mm 2 m/s 747 mmHg 50%
21:00 +26°C° 0 mm 2 m/s 747 mmHg 57%
22:00 +24°C° 0 mm 2 m/s 747 mmHg 63%
23:00 +24°C° 0 mm 1 m/s 747 mmHg 66%
Arată mai mult

Formular de consimțământ

Meteoprog și furnizorii noștri de servicii pot stoca și accesa date personale, precum cookies, identificatori de dispozitiv sau alte tehnologii similare pe dispozitivul dumneavoastră și procesa astfel de date pentru a personaliza conținutul și reclamele, dar și pentru a oferi caracteristici de social media și pentru a analiza traficul.

  • Stocarea și/sau accesarea informațiilor pe dispozitivul dumneavoastră

    Cookies, identificatori de dispozitiv sau alte informații pot fi stocate sau accesate pe dispozitiv în scopurile indicate mai sus.

  • Reclame și conținut personalizat, evaluarea reclamelor și a conținutului, informații despre audiențe și dezvoltarea produselor

    Reclamele și conținutul pot fi personalizate pe baza unui profil. Pot fi adăugate date suplimentare pentru a personaliza mai bine reclamele și conținutul. Performanța reclamelor și conținutului poate fi măsurată. Pot fi obținute informații despre utilizatorii care au văzut reclamele și conținutul. Aceste date pot fi utilizate pentru a dezvolta sau îmbunătăți experiența utilizatorilor, sistemele și software-ul.

Dând clic pe ‘Sunt de acord’, permiteți utilizarea cookie-urilor menționate, a identificatorilor de dispozitiv, balizelor web sau altor tehnologii similare. Setările pot fi modificate din browser-ul dispozitivului dumneavoastră.

În anumite scopuri, interesele legitime pot prima asupra consimțământului. Puteți citi mai multe informații în acest sens în Politica privind Confidențialitatea Datelor și Cookie.